2022-098M (53455 NORAD) Tracking and Keplerian Element Data

This shows tracking and keplerian element data for the satellite.

Feedback or suggestion? Click here.




ElementValue
Catalog53455
Name2022-098M
Epoch Orbit1555
Epoch Day325.33040154
Epoch Year2022
RAAN60.0006
Inclination97.5304
Eccentricity0.0010477
Argument of Perigee289.1102
Mean Anonmoly156.7442
Mean Motion15.12152742
Decay Rate9.292E-05
L11 53455U 22098M 22325.33040154 .00009292 00000+0 54174-3 0 9992
L22 53455 97.5304 60.0006 0010477 289.1102 156.7442 15.12152742 15551



Live tracking and technical data element details for 2022-098M (NORAD 53455). 2022-098M can be tracked NOW for your location showing map with azimuth and elevation plus other details from your city location.







IsCatalogInMostPopularTable: catalog: 53455, numindb: 5
Update: records affected: 1



GetName: 53455 2022-098M

Hit Count: updated at: Thu, 08 Dec 2022 19:46:23 GMT